Location: Kott?ru
(16.6209°N, 80.6208°E)
Time: 16:35:12
(UTC+00:00)

Hubble Space Telescope - Pass Details

Date: 18 September 2020
Orbit: 536 x 540 km, 28.5° (Epoch: 20 October)

Event Time Altitude Azimuth Distance (km) Brightness Sun altitude
Exits shadow 23:16:59 - 196° (SSW) 1,862 3.3 -17.4°
Reaches altitude 10° 23:17:19 10° 192° (SSW) 1,771 3.2 -17.3°
Maximum altitude 23:20:06 18° 149° (SSE) 1,356 3.1 -16.6°
Drops below altitude 10° 23:22:53 10° 106° (ESE) 1,773 4.5 -16.0°
Sets 23:25:43 0° 87° (E) 2,664 6.2 -15.3°
